When you browse on this site, cookies collect data to enhance your experience and personalize the content and advertising you see.
Visit our Privacy Policy to learn more. By continuing to use the site, you agree to this use of cookies and data.

Hourly Weather Polotsk

Today, 2 July, Thursday

Time Temperature Precipitation Wind Pressure Humidity
00:00 +15°C° 0 mm 2 mps 742 mmHg 91%
01:00 +15°C° 0 mm 2 mps 742 mmHg 91%
02:00 +16°C° 0 mm 2 mps 742 mmHg 90%
03:00 +16°C° 0.1 mm 2 mps 742 mmHg 91%
04:00 +16°C° 0.1 mm 2 mps 742 mmHg 93%
05:00 +16°C° 0.1 mm 2 mps 742 mmHg 94%
06:00 +17°C° 0.2 mm 2 mps 742 mmHg 93%
07:00 +18°C° 0.2 mm 2 mps 742 mmHg 92%
08:00 +19°C° 0.2 mm 2 mps 742 mmHg 91%
09:00 +19°C° 1.2 mm 3 mps 742 mmHg 90%
10:00 +20°C° 1.2 mm 3 mps 742 mmHg 89%
11:00 +21°C° 1.2 mm 3 mps 742 mmHg 88%
12:00 +22°C° 0.7 mm 3 mps 742 mmHg 84%
13:00 +24°C° 0.7 mm 2 mps 742 mmHg 81%
14:00 +25°C° 0.7 mm 2 mps 742 mmHg 77%
15:00 +25°C° 0.4 mm 3 mps 742 mmHg 76%
16:00 +25°C° 0.4 mm 3 mps 742 mmHg 76%
17:00 +25°C° 0.4 mm 3 mps 742 mmHg 75%
18:00 +24°C° 0.7 mm 3 mps 742 mmHg 80%
19:00 +22°C° 0.7 mm 3 mps 742 mmHg 85%
20:00 +21°C° 0.7 mm 3 mps 742 mmHg 91%
21:00 +20°C° 0.1 mm 3 mps 742 mmHg 92%
22:00 +19°C° 0.1 mm 3 mps 742 mmHg 94%
23:00 +18°C° 0.1 mm 3 mps 743 mmHg 96%

Tomorrow, 3 July, Friday

Time Temperature Precipitation Wind Pressure Humidity
00:00 +17°C° 0 mm 3 mps 743 mmHg 96%
01:00 +16°C° 0 mm 2 mps 744 mmHg 96%
02:00 +15°C° 0 mm 2 mps 744 mmHg 96%
03:00 +15°C° 0 mm 2 mps 744 mmHg 96%
04:00 +15°C° 0 mm 2 mps 744 mmHg 95%
05:00 +14°C° 0 mm 2 mps 744 mmHg 95%
06:00 +16°C° 0 mm 1 mps 745 mmHg 89%
07:00 +18°C° 0 mm 1 mps 745 mmHg 83%
08:00 +19°C° 0 mm 1 mps 745 mmHg 77%
09:00 +21°C° 0 mm 1 mps 745 mmHg 70%
10:00 +22°C° 0 mm 1 mps 745 mmHg 62%
11:00 +24°C° 0 mm 1 mps 746 mmHg 55%
12:00 +25°C° 0 mm 1 mps 745 mmHg 54%
13:00 +25°C° 0 mm 1 mps 745 mmHg 53%
14:00 +26°C° 0 mm 1 mps 745 mmHg 52%
15:00 +25°C° 0 mm 2 mps 744 mmHg 56%
16:00 +25°C° 0 mm 2 mps 744 mmHg 61%
17:00 +25°C° 0 mm 2 mps 744 mmHg 65%
18:00 +23°C° 0.4 mm 2 mps 744 mmHg 74%
19:00 +22°C° 0.4 mm 1 mps 744 mmHg 82%
20:00 +20°C° 0.4 mm 1 mps 744 mmHg 91%
21:00 +20°C° 0.2 mm 1 mps 744 mmHg 93%
22:00 +19°C° 0.2 mm 1 mps 744 mmHg 94%
23:00 +17°C° 0.2 mm 0 mps 744 mmHg 95%

Day after tomorrow, 4 July, Saturday

Time Temperature Precipitation Wind Pressure Humidity
00:00 +18°C° 0 mm 1 mps 744 mmHg 95%
01:00 +18°C° 0 mm 1 mps 744 mmHg 95%
02:00 +16°C° 0 mm 1 mps 744 mmHg 96%
03:00 +16°C° 0 mm 2 mps 744 mmHg 96%
04:00 +16°C° 0 mm 2 mps 744 mmHg 96%
05:00 +16°C° 0 mm 3 mps 745 mmHg 96%
06:00 +17°C° 0 mm 3 mps 745 mmHg 93%
07:00 +18°C° 0 mm 3 mps 745 mmHg 89%
08:00 +19°C° 0 mm 3 mps 746 mmHg 85%
09:00 +19°C° 0 mm 3 mps 746 mmHg 79%
10:00 +20°C° 0 mm 3 mps 746 mmHg 73%
11:00 +21°C° 0 mm 3 mps 747 mmHg 68%
12:00 +21°C° 0 mm 3 mps 747 mmHg 63%
13:00 +22°C° 0 mm 3 mps 747 mmHg 58%
14:00 +23°C° 0 mm 4 mps 747 mmHg 53%
15:00 +23°C° 0 mm 4 mps 747 mmHg 55%
16:00 +24°C° 0 mm 3 mps 746 mmHg 56%
17:00 +24°C° 0 mm 3 mps 746 mmHg 58%
18:00 +21°C° 0 mm 3 mps 746 mmHg 65%
19:00 +20°C° 0 mm 2 mps 747 mmHg 72%
20:00 +19°C° 0 mm 2 mps 747 mmHg 79%
21:00 +18°C° 0 mm 2 mps 747 mmHg 81%
22:00 +17°C° 0 mm 2 mps 747 mmHg 83%
23:00 +16°C° 0 mm 2 mps 747 mmHg 85%

5 July, Sunday

Time Temperature Precipitation Wind Pressure Humidity
00:00 +16°C° 0 mm 2 mps 747 mmHg 87%
01:00 +15°C° 0 mm 2 mps 747 mmHg 89%
02:00 +15°C° 0 mm 2 mps 747 mmHg 91%
03:00 +15°C° 0 mm 2 mps 747 mmHg 91%
04:00 +16°C° 0 mm 2 mps 747 mmHg 90%
05:00 +16°C° 0 mm 2 mps 747 mmHg 90%
06:00 +18°C° 0 mm 2 mps 747 mmHg 85%
07:00 +19°C° 0 mm 2 mps 747 mmHg 80%
08:00 +21°C° 0 mm 3 mps 747 mmHg 75%
09:00 +22°C° 0.2 mm 3 mps 746 mmHg 72%
10:00 +23°C° 0.2 mm 4 mps 746 mmHg 68%
11:00 +25°C° 0.2 mm 4 mps 746 mmHg 65%
12:00 +25°C° 0.3 mm 4 mps 746 mmHg 65%
13:00 +26°C° 0.3 mm 4 mps 745 mmHg 65%
14:00 +26°C° 0.3 mm 4 mps 745 mmHg 65%
15:00 +26°C° 0.3 mm 4 mps 745 mmHg 67%
16:00 +25°C° 0.3 mm 4 mps 744 mmHg 70%
17:00 +25°C° 0.3 mm 4 mps 744 mmHg 72%
18:00 +23°C° 0.2 mm 4 mps 744 mmHg 77%
19:00 +22°C° 0.2 mm 3 mps 744 mmHg 82%
20:00 +20°C° 0.2 mm 3 mps 744 mmHg 86%
21:00 +20°C° 0 mm 3 mps 743 mmHg 88%
22:00 +19°C° 0 mm 3 mps 743 mmHg 89%
23:00 +18°C° 0 mm 4 mps 743 mmHg 90%

6 July, Monday

Time Temperature Precipitation Wind Pressure Humidity
00:00 +18°C° 0 mm 4 mps 743 mmHg 91%
01:00 +18°C° 0 mm 4 mps 742 mmHg 92%
02:00 +18°C° 0 mm 4 mps 742 mmHg 92%
03:00 +18°C° 0 mm 4 mps 742 mmHg 91%
04:00 +19°C° 0 mm 5 mps 742 mmHg 90%
05:00 +19°C° 0 mm 5 mps 741 mmHg 89%
06:00 +20°C° 0 mm 5 mps 741 mmHg 86%
07:00 +21°C° 0 mm 5 mps 741 mmHg 82%
08:00 +22°C° 0 mm 6 mps 741 mmHg 78%
09:00 +22°C° 0.2 mm 6 mps 741 mmHg 76%
10:00 +23°C° 0.2 mm 6 mps 741 mmHg 75%
11:00 +23°C° 0.2 mm 7 mps 741 mmHg 73%
12:00 +23°C° 0.2 mm 7 mps 741 mmHg 72%
13:00 +24°C° 0.2 mm 7 mps 741 mmHg 70%
14:00 +24°C° 0.2 mm 6 mps 741 mmHg 69%
15:00 +24°C° 0.1 mm 6 mps 741 mmHg 68%
16:00 +24°C° 0.1 mm 6 mps 741 mmHg 67%
17:00 +25°C° 0.1 mm 5 mps 741 mmHg 66%
18:00 +23°C° 0 mm 4 mps 742 mmHg 73%
19:00 +22°C° 0 mm 3 mps 742 mmHg 79%
20:00 +21°C° 0 mm 2 mps 742 mmHg 85%
21:00 +20°C° 0 mm 2 mps 742 mmHg 88%
22:00 +19°C° 0 mm 2 mps 742 mmHg 90%
23:00 +18°C° 0 mm 3 mps 742 mmHg 93%

7 July, Tuesday

Time Temperature Precipitation Wind Pressure Humidity
00:00 +18°C° 0 mm 3 mps 742 mmHg 94%
01:00 +17°C° 0 mm 3 mps 742 mmHg 94%
02:00 +17°C° 0 mm 3 mps 742 mmHg 95%
03:00 +17°C° 0 mm 3 mps 742 mmHg 95%
04:00 +17°C° 0 mm 3 mps 742 mmHg 95%
05:00 +17°C° 0 mm 3 mps 742 mmHg 95%
06:00 +17°C° 0 mm 3 mps 743 mmHg 88%
07:00 +18°C° 0 mm 3 mps 743 mmHg 82%
08:00 +18°C° 0 mm 3 mps 743 mmHg 75%
09:00 +18°C° 0 mm 3 mps 744 mmHg 72%
10:00 +19°C° 0 mm 3 mps 744 mmHg 68%
11:00 +19°C° 0 mm 3 mps 744 mmHg 65%
12:00 +20°C° 0 mm 3 mps 744 mmHg 61%
13:00 +21°C° 0 mm 4 mps 744 mmHg 57%
14:00 +22°C° 0 mm 4 mps 744 mmHg 54%
15:00 +22°C° 0 mm 4 mps 744 mmHg 54%
16:00 +22°C° 0 mm 4 mps 744 mmHg 55%
17:00 +22°C° 0 mm 3 mps 744 mmHg 55%
18:00 +20°C° 0 mm 3 mps 744 mmHg 63%
19:00 +19°C° 0 mm 2 mps 744 mmHg 71%
20:00 +17°C° 0 mm 2 mps 745 mmHg 79%
21:00 +16°C° 0 mm 2 mps 745 mmHg 81%
22:00 +15°C° 0 mm 2 mps 745 mmHg 83%
23:00 +14°C° 0 mm 2 mps 746 mmHg 86%
Show more